STARLINK-36910

Last updated on Mon Mar 30 2026 00:02:05 GMT+0000 (Coordinated Universal Time)

1 68005U 26039V 26088.16668981 .00004954 00000+0 18479-3 0 9991 2 68005 42.9995 299.1827 0001899 270.6869 290.7758 15.28402556 6004
UTC large
Height (km)
Speed (km/s)
/
Latitude / Longitude
Inclination (degrees)
Orbital Period (minutes)
Azimuth
Elevation
Range (km)
Doppler Factor

Next 0 passes for location: London (51.5072 / 0.1276)

Sorry there are no passes over London.